Temp
23 23 23 25 24 22 22 22 21 20 20 20 20 19 18 18 17 17 16 16 16 16 15 16 16 16 16 16 16 16 15 14
21 21 21 20 19 20 20 20 19 19 19 18 17 17 16 16 16 16 15 15 15 15 15 16 15 16 15 16 15 15 12 13
19 20 19 18 18 18 19 19 18 18 18 18 18 16 15 16 15 14 15 15 15 15 15 15 15 15 15 15 15 14 14 14
18 18 18 18 17 17 17 16 16 16 17 17 16 15 14 14 13 14 14 14 14 14 14 14 15 15 15 14 14 14 14 13
18 17 17 16 15 15 16 15 15 16 16 16 16 15 14 14 14 14 14 14 14 14 14 14 15 14 14 14 13 13 13 13
17 16 17 15 15 15 15 15 15 15 15 16 15 15 15 15 14 14 13 13 13 13 14 14 14 14 14 13 13 13 13 12
18 17 16 15 15 15 15 15 15 15 15 16 16 16 16 15 14 13 13 13 13 13 14 14 14 13 13 13 12 12 12 12
18 16 15 16 15 15 14 14 15 15 16 16 17 17 17 16 15 14 14 14 14 14 14 14 13 13 13 12 12 12 12 11
18 17 16 16 16 15 15 14 15 16 17 17 18 18 17 16 16 16 16 16 16 16 15 14 14 13 13 12 12 12 12 11
19 18 17 17 17 16 16 16 17 17 18 18 18 18 18 17 17 17 16 16 16 15 15 14 13 13 13 13 12 12 11 11
19 19 17 17 17 16 17 17 18 18 18 19 19 19 18 18 18 17 17 16 16 15 14 14 14 13 13 12 12 11 11 11
19 19 18 18 18 18 18 18 20 20 19 19 19 19 19 18 18 17 17 17 16 15 14 14 14 13 13 12 12 12 11 11
18 18 19 18 18 19 20 20 20 20 20 19 19 19 18 18 17 17 16 16 15 15 14 14 14 13 13 13 12 12 11 11
19 18 18 19 18 20 20 20 20 19 19 19 19 18 18 17 17 16 16 15 15 14 14 14 13 13 13 13 12 12 11 10
20 20 18 19 19 19 20 20 20 20 19 19 18 18 17 16 16 15 15 14 14 13 13 13 13 12 12 12 11 11 10 9
21 20 18 20 19 19 19 20 20 19 19 18 17 16 16 15 15 14 13 13 12 12 12 11 11 11 10 10 10 10 9 8
22 21 20 19 20 19 20 19 18 18 17 16 14 13 13 13 12 12 12 11 11 10 9 9 8 8 7 7 9 7 7 6
22 22 20 20 19 18 16 16 16 15 14 14 13 13 12 11 11 11 9 9 8 8 7 6 5 4 4 4 7 6 5 3
19 18 16 17 17 15 14 14 14 14 13 12 12 12 11 10 10 9 8 7 6 6 4 2 1 2 2 2 3 3 2 1
Height
772 775 776 777 779 784 785 787 791 795 799 802 808 813 816 818 821 823 824 825 827 830 832 833 833 832 833 834 836 836 837 838
772 775 780 783 782 783 785 788 792 795 798 801 807 812 815 818 820 821 822 825 827 827 829 830 832 832 833 835 837 837 840 840
773 776 781 785 787 787 788 790 793 796 798 801 805 810 815 816 819 820 822 824 825 826 828 829 831 831 833 834 836 837 837 838
773 777 782 785 787 788 789 790 792 795 798 800 805 810 814 815 818 820 821 823 826 828 829 829 830 830 832 833 835 837 838 838
771 776 781 785 787 788 789 790 792 795 796 799 803 805 810 814 817 819 821 822 824 826 827 830 830 831 832 833 833 835 836 837
768 773 779 783 785 787 788 790 792 794 797 800 803 807 810 812 815 817 820 822 824 826 828 829 830 830 831 832 831 832 833 834
763 772 779 782 784 786 788 789 792 795 798 801 804 806 808 810 814 818 819 822 823 825 827 828 829 830 831 832 832 833 833 833
762 770 776 779 782 784 786 788 791 794 797 799 802 804 805 808 812 815 818 820 821 822 823 825 828 829 830 831 831 831 831 831
758 765 770 775 779 782 785 787 790 793 796 798 801 803 805 807 809 812 814 815 817 818 820 823 825 826 828 829 830 830 829 830
754 761 766 772 777 780 782 785 789 791 794 797 799 802 804 805 806 809 810 812 814 816 817 819 822 824 826 828 828 828 828 828
750 757 763 768 774 779 781 784 785 788 792 795 797 800 802 804 805 807 808 809 810 813 815 817 820 822 823 824 825 825 825 825
747 753 758 763 771 775 778 781 783 785 788 792 795 797 800 802 803 804 806 807 808 810 813 815 818 819 821 821 822 823 823 823
743 749 754 760 765 770 773 776 778 781 784 788 791 794 796 798 801 803 805 807 809 811 813 813 815 816 817 819 819 819 819 819
740 745 749 754 759 764 768 772 776 780 783 786 788 791 793 795 798 801 803 804 806 808 810 811 812 814 814 814 814 815 814 814
734 739 742 746 751 756 761 766 770 775 779 782 785 788 791 794 796 800 803 803 804 806 808 810 811 811 812 812 812 812 812 812
728 734 739 743 747 751 755 760 764 770 775 780 784 788 791 794 795 799 801 801 802 804 806 807 807 807 807 808 809 810 810 811
720 725 729 734 739 745 750 756 762 766 771 777 782 788 794 796 796 798 801 801 801 802 805 807 808 807 806 807 808 809 809 809
713 717 722 729 735 743 751 756 760 765 770 774 779 784 795 797 798 799 801 803 802 802 804 806 806 807 806 807 807 809 809 809
709 714 721 724 732 743 749 755 761 766 771 774 779 783 790 795 799 800 803 804 804 804 806 807 807 807 807 808 807 808 809 810
Wind_Speed
17 20 19 3 25 33 33 30 29 26 23 20 16 14 12 11 11 9 10 8 4 5 6 6 7 7 5 3 8 8 11 12
17 19 17 20 22 29 28 27 24 25 23 22 19 17 15 12 9 10 9 8 8 8 8 9 7 6 5 5 8 12 14 15
13 14 12 11 14 18 21 21 22 21 23 22 22 20 14 11 10 11 9 9 11 11 8 7 8 7 5 4 4 7 4 13
9 12 10 8 9 11 16 19 21 22 22 21 20 16 17 14 12 10 10 11 10 8 7 7 6 6 5 3 3 3 3 9
9 12 11 11 10 14 17 19 21 21 22 24 27 24 19 13 13 13 12 10 7 7 7 6 4 3 5 5 4 5 4 5
12 12 15 14 15 17 18 19 20 22 24 23 25 18 14 12 16 13 11 9 8 8 6 4 3 3 2 2 3 4 6 6
12 18 19 15 15 17 19 20 21 22 21 21 19 17 18 17 17 15 13 10 10 8 6 6 4 3 3 3 5 6 5 6
14 13 16 19 18 18 20 21 21 24 22 21 22 21 18 19 20 19 15 13 12 12 11 9 6 6 6 5 6 5 5 4
15 14 18 20 19 20 18 22 24 23 20 22 18 17 19 21 19 18 18 16 13 12 12 11 9 9 10 9 9 8 7 7
15 16 21 23 21 24 26 27 26 24 23 20 19 19 16 21 18 18 19 21 18 17 15 12 12 13 12 11 10 11 11 10
13 15 23 25 26 28 28 28 26 24 23 20 20 16 16 13 21 16 18 12 15 22 21 19 19 17 15 14 14 11 13 12
10 15 24 27 29 29 29 28 30 27 24 22 19 20 18 15 15 16 14 12 13 18 19 17 16 16 16 16 16 14 13 15
9 12 22 24 30 31 28 21 28 31 28 25 21 19 19 19 16 13 13 13 13 13 12 14 15 15 15 19 19 18 16 14
10 9 14 23 26 32 29 21 16 16 21 20 18 17 16 14 13 12 12 13 10 9 10 10 10 12 13 13 18 18 17 12
14 13 12 23 28 33 34 30 26 21 17 15 19 18 14 13 11 11 10 9 7 6 5 7 10 11 10 11 9 9 12 11
15 14 10 19 24 28 34 35 32 25 17 13 13 13 12 12 12 9 10 9 7 4 4 3 2 5 7 8 9 8 10 9
15 15 17 19 26 27 29 28 25 21 17 16 19 16 11 11 11 9 7 5 5 5 4 5 5 3 1 4 7 5 5 7
12 17 13 14 17 24 27 28 25 23 25 22 18 15 10 8 6 5 3 3 3 3 4 5 4 3 6 4 8 6 9 9
8 8 15 23 29 33 33 29 26 25 24 22 18 14 11 8 6 5 4 5 4 4 4 4 3 3 3 1 3 7 9 7
Wind_Direction
90 63 46 67 151 157 157 164 163 166 164 165 170 175 170 174 189 202 210 212 190 172 176 181 180 168 166 116 104 129 150 137
98 83 86 102 127 153 159 161 164 169 164 156 158 166 168 170 194 201 191 164 160 159 175 172 174 158 144 140 113 148 139 142
101 104 105 107 118 143 157 169 170 174 175 169 174 174 170 170 183 175 170 174 175 181 184 182 172 155 160 167 152 165 194 186
124 121 127 148 144 157 166 168 172 174 175 169 161 157 155 172 188 186 180 180 191 203 203 191 179 161 166 177 242 238 251 227
131 132 139 160 170 173 173 175 176 179 177 171 170 167 170 194 195 182 178 193 205 195 185 187 183 256 277 273 272 270 278 297
142 142 161 174 177 176 175 176 177 175 176 178 175 175 184 186 181 178 184 193 187 174 182 207 190 180 167 227 239 246 254 256
129 146 160 169 177 177 178 179 178 180 178 178 175 182 182 174 175 179 184 189 174 182 190 181 179 192 233 259 237 245 248 253
142 153 165 171 174 180 180 181 182 178 180 188 190 193 186 178 178 184 189 184 193 197 193 195 203 219 240 251 251 255 252 259
157 164 166 170 173 180 173 178 180 183 191 198 194 193 195 186 187 194 193 199 203 195 197 201 212 222 225 239 238 247 253 250
164 167 167 173 179 180 178 177 183 188 190 190 193 186 182 191 201 202 201 215 215 209 203 205 208 213 235 249 247 238 238 241
168 165 166 172 182 187 188 188 192 194 189 185 186 186 190 201 202 183 184 184 190 204 201 202 209 222 226 229 239 243 239 238
162 166 170 169 183 194 201 202 187 184 189 195 195 199 205 211 193 203 209 203 201 189 197 206 218 222 228 233 241 242 244 248
161 163 165 171 184 194 200 193 195 191 192 194 193 199 204 204 203 196 202 213 200 208 210 217 223 228 241 239 239 235 242 234
174 165 169 176 181 185 193 194 179 173 186 187 191 198 197 193 202 206 203 194 194 209 218 225 231 242 246 248 241 236 235 223
184 183 180 184 178 183 190 196 207 209 205 198 195 197 195 195 193 200 188 187 179 175 209 240 254 259 257 250 251 234 218 201
190 187 187 186 182 183 191 197 197 200 178 172 176 183 187 176 167 177 148 163 172 197 225 220 227 239 245 260 253 242 211 212
187 188 189 185 185 188 187 173 152 152 134 125 124 112 109 123 125 133 164 179 202 239 283 305 309 324 355 262 258 207 207 196
191 194 182 168 164 158 143 137 132 120 117 116 118 119 126 126 142 174 181 222 245 273 301 298 302 335 13 329 272 210 173 159
144 122 114 126 136 132 124 119 116 119 119 123 126 135 142 152 177 202 225 264 291 307 323 334 359 12 323 143 150 168 149 140